| time (UTC) | temp F | wind direction | speed MPH | gust MPH | rain 1hr in | rain 24hr in | rain mn in | humidity % | barometer mb |
| 20260502170131 | 66 | 29 | 9.0 | 11.0 | 0.00 | 0.00 | 0.00 | 48 | 4253.5 |
| 20260502164130 | 65 | 12 | 11.0 | 13.0 | 0.00 | 0.00 | 0.00 | 45 | 4253.6 |
| 20260502163129 | 64 | 26 | 10.0 | 11.0 | 0.00 | 0.00 | 0.00 | 47 | 4253.8 |
| 20260502162128 | 64 | 51 | 6.0 | 8.0 | 0.00 | 0.00 | 0.00 | 49 | 4253.9 |
| 20260502161123 | 64 | 350 | 4.0 | 7.0 | 0.00 | 0.00 | 0.00 | 45 | 4254.2 |
| 20260502160119 | 64 | 24 | 7.0 | 9.0 | 0.00 | 0.00 | 0.00 | 53 | 4254.0 |
| 20260502152109 | 63 | 57 | 3.0 | 5.0 | 0.00 | 0.00 | 0.00 | 50 | 4254.1 |
| 20260502151103 | 62 | 32 | 6.0 | 6.0 | 0.00 | 0.00 | 0.00 | 50 | 4253.8 |
| 20260502123045 | 53 | 79 | 3.0 | 3.0 | 0.00 | 0.00 | 0.00 | 73 | 4253.2 |
| 20260502122045 | 52 | 66 | 1.0 | 2.0 | 0.00 | 0.00 | 0.00 | 74 | 4253.1 |
| 20260502121040 | 52 | 21 | 6.0 | 7.0 | 0.00 | 0.00 | 0.00 | 74 | 4253.1 |
| 20260502115038 | 51 | 26 | 3.0 | 3.0 | 0.00 | 0.00 | 0.00 | 76 | 4252.9 |
| 20260502114038 | 51 | 19 | 6.0 | 7.0 | 0.00 | 0.00 | 0.00 | 72 | 4252.9 |
| 20260502113034 | 51 | 17 | 4.0 | 5.0 | 0.00 | 0.00 | 0.00 | 76 | 4252.6 |
| 20260502112029 | 51 | 15 | 5.0 | 7.0 | 0.00 | 0.00 | 0.00 | 75 | 4252.4 |
| 20260502111030 | 51 | 38 | 3.0 | 5.0 | 0.00 | 0.00 | 0.00 | 75 | 4252.1 |
| 20260502110025 | 52 | 42 | 3.0 | 5.0 | 0.00 | 0.00 | 0.00 | 76 | 4252.4 |
| 20260502105025 | 52 | 31 | 4.0 | 6.0 | 0.00 | 0.00 | 0.00 | 77 | 4252.0 |
| 20260502104020 | 52 | 62 | 4.0 | 6.0 | 0.00 | 0.00 | 0.00 | 73 | 4252.3 |
| 20260502103020 | 52 | 36 | 5.0 | 6.0 | 0.00 | 0.00 | 0.00 | 73 | 4252.1 |
| 20260502102019 | 52 | 8 | 6.0 | 7.0 | 0.00 | 0.00 | 0.00 | 70 | 4252.1 |
| 20260502101015 | 52 | 43 | 5.0 | 8.0 | 0.00 | 0.00 | 0.00 | 73 | 4251.9 |
| 20260502090951 | 54 | 36 | 3.0 | 3.0 | 0.00 | 0.00 | 0.00 | 71 | 4252.0 |
| 20260502070927 | 56 | 14 | 5.0 | 7.0 | 0.00 | 0.00 | 0.00 | 69 | 4251.9 |
| 20260502065923 | 56 | 23 | 3.0 | 5.0 | 0.00 | 0.00 | 0.00 | 63 | 4252.5 |
| 20260502064919 | 56 | 34 | 3.0 | 3.0 | 0.00 | 0.00 | 0.00 | 63 | 4252.6 |
| 20260502063919 | 57 | 15 | 4.0 | 5.0 | 0.00 | 0.00 | 0.00 | 60 | 4252.9 |
| 20260502062915 | 57 | 18 | 3.0 | 3.0 | 0.00 | 0.00 | 0.00 | 62 | 4253.0 |
| 20260502061911 | 57 | 42 | 3.0 | 3.0 | 0.00 | 0.00 | 0.00 | 60 | 4252.9 |
| 20260502060910 | 57 | 46 | 3.0 | 3.0 | 0.00 | 0.00 | 0.00 | 61 | 4253.0 |
| 20260502055907 | 57 | 18 | 6.0 | 7.0 | 0.00 | 0.00 | 0.00 | 61 | 4252.9 |
| 20260502054905 | 57 | 23 | 5.0 | 6.0 | 0.00 | 0.00 | 0.00 | 63 | 4252.8 |
| 20260502053905 | 57 | 20 | 6.0 | 7.0 | 0.00 | 0.00 | 0.00 | 63 | 4252.9 |
| 20260502052900 | 58 | 45 | 6.0 | 8.0 | 0.00 | 0.00 | 0.00 | 57 | 4253.0 |
| 20260502051855 | 58 | 28 | 7.0 | 8.0 | 0.00 | 0.00 | 0.00 | 57 | 4252.7 |
| 20260502050850 | 58 | 44 | 5.0 | 7.0 | 0.00 | 0.00 | 0.00 | 60 | 4252.5 |
| 20260502045849 | 58 | 67 | 6.0 | 7.0 | 0.00 | 0.00 | 0.00 | 60 | 4252.4 |
| 20260502044849 | 58 | 41 | 5.0 | 7.0 | 0.00 | 0.00 | 0.00 | 60 | 4252.1 |
| 20260502043848 | 58 | 24 | 4.0 | 6.0 | 0.00 | 0.00 | 0.00 | 58 | 4252.3 |
| 20260502042845 | 59 | 60 | 6.0 | 7.0 | 0.00 | 0.00 | 0.00 | 59 | 4252.0 |
| 20260502041840 | 59 | 48 | 3.0 | 3.0 | 0.00 | 0.00 | 0.00 | 62 | 4251.9 |
| 20260502040835 | 59 | 21 | 5.0 | 6.0 | 0.00 | 0.00 | 0.00 | 55 | 4251.9 |
| 20260502035833 | 59 | 32 | 3.0 | 5.0 | 0.00 | 0.00 | 0.00 | 59 | 4251.8 |
| 20260502034833 | 59 | 26 | 3.0 | 3.0 | 0.00 | 0.00 | 0.00 | 59 | 4251.8 |
| 20260502033830 | 59 | 31 | 3.0 | 3.0 | 0.00 | 0.00 | 0.00 | 57 | 4251.5 |
| 20260502032830 | 59 | 30 | 4.0 | 6.0 | 0.00 | 0.00 | 0.00 | 61 | 4251.6 |
| 20260502031829 | 59 | 359 | 5.0 | 7.0 | 0.00 | 0.00 | 0.00 | 57 | 4251.8 |
| 20260502030826 | 59 | 38 | 4.0 | 6.0 | 0.00 | 0.00 | 0.00 | 60 | 4251.7 |
| 20260502025826 | 60 | 29 | 7.0 | 8.0 | 0.00 | 0.00 | 0.00 | 61 | 4251.8 |
| 20260502024821 | 60 | 355 | 8.0 | 9.0 | 0.00 | 0.00 | 0.00 | 61 | 4252.0 |
| 20260502023817 | 60 | 13 | 6.0 | 8.0 | 0.00 | 0.00 | 0.00 | 62 | 4252.1 |
| 20260502022812 | 60 | 32 | 6.0 | 9.0 | 0.00 | 0.00 | 0.00 | 61 | 4252.1 |
| 20260502021811 | 60 | 60 | 8.0 | 10.0 | 0.00 | 0.00 | 0.00 | 63 | 4252.0 |
| 20260502020811 | 60 | 356 | 7.0 | 8.0 | 0.00 | 0.00 | 0.00 | 64 | 4252.1 |
| 20260502015811 | 61 | 17 | 8.0 | 11.0 | 0.00 | 0.00 | 0.00 | 64 | 4251.8 |
| 20260502014806 | 61 | 40 | 8.0 | 9.0 | 0.00 | 0.00 | 0.00 | 65 | 4251.5 |
| 20260502013804 | 61 | 15 | 8.0 | 9.0 | 0.00 | 0.00 | 0.00 | 66 | 4251.3 |
| 20260502012803 | 62 | 47 | 4.0 | 5.0 | 0.00 | 0.00 | 0.00 | 69 | 4251.3 |
| 20260502011758 | 62 | 50 | 7.0 | 8.0 | 0.00 | 0.00 | 0.00 | 68 | 4251.2 |
| 20260502010757 | 62 | 32 | 9.0 | 11.0 | 0.00 | 0.00 | 0.00 | 68 | 4251.3 |
| 20260502005756 | 63 | 350 | 7.0 | 7.0 | 0.00 | 0.00 | 0.00 | 68 | 4251.1 |
| 20260502004756 | 63 | 1 | 7.0 | 9.0 | 0.00 | 0.00 | 0.00 | 67 | 4251.0 |
| 20260502003751 | 63 | 7 | 7.0 | 7.0 | 0.00 | 0.00 | 0.00 | 68 | 4250.8 |
| 20260502002749 | 64 | 342 | 6.0 | 7.0 | 0.00 | 0.00 | 0.00 | 69 | 4250.7 |
| 20260502001749 | 64 | 22 | 3.0 | 6.0 | 0.00 | 0.00 | 0.00 | 68 | 4250.6 |
| 20260502000745 | 64 | 34 | 8.0 | 9.0 | 0.00 | 0.00 | 0.00 | 65 | 4250.3 |
| 20260501235743 | 64 | 36 | 5.0 | 6.0 | 0.00 | 0.00 | 0.00 | 66 | 4250.1 |
| 20260501234742 | 65 | 36 | 3.0 | 5.0 | 0.00 | 0.00 | 0.00 | 66 | 4249.9 |
| 20260501233737 | 65 | 11 | 6.0 | 7.0 | 0.00 | 0.00 | 0.00 | 65 | 4249.9 |
| 20260501232735 | 65 | 59 | 4.0 | 5.0 | 0.00 | 0.00 | 0.00 | 62 | 4250.1 |
| 20260501231731 | 65 | 25 | 6.0 | 7.0 | 0.00 | 0.00 | 0.00 | 64 | 4249.8 |
| 20260501230726 | 65 | 17 | 2.0 | 3.0 | 0.00 | 0.00 | 0.00 | 67 | 4249.8 |
| 20260501225722 | 65 | 60 | 6.0 | 8.0 | 0.00 | 0.00 | 0.00 | 65 | 4249.4 |
| 20260501224721 | 66 | 22 | 5.0 | 8.0 | 0.00 | 0.00 | 0.00 | 63 | 4249.6 |
| 20260501223721 | 66 | 44 | 8.0 | 11.0 | 0.00 | 0.00 | 0.00 | 66 | 4249.5 |
| 20260501222719 | 66 | 25 | 4.0 | 5.0 | 0.00 | 0.00 | 0.00 | 63 | 4249.9 |
| 20260501221719 | 66 | 31 | 7.0 | 9.0 | 0.00 | 0.00 | 0.00 | 63 | 4249.6 |
| 20260501220714 | 66 | 9 | 7.0 | 8.0 | 0.00 | 0.00 | 0.00 | 62 | 4249.5 |
| 20260501215714 | 66 | 350 | 6.0 | 8.0 | 0.00 | 0.00 | 0.00 | 60 | 4249.2 |
| 20260501214710 | 66 | 16 | 9.0 | 10.0 | 0.00 | 0.00 | 0.00 | 63 | 4249.0 |
| 20260501213709 | 66 | 349 | 5.0 | 7.0 | 0.00 | 0.00 | 0.00 | 61 | 4249.1 |
| 20260501212707 | 66 | 9 | 4.0 | 6.0 | 0.00 | 0.00 | 0.00 | 61 | 4249.1 |
| 20260501211707 | 66 | 20 | 9.0 | 10.0 | 0.00 | 0.00 | 0.00 | 64 | 4249.3 |
| 20260501210707 | 66 | 34 | 3.0 | 3.0 | 0.00 | 0.00 | 0.00 | 65 | 4249.4 |
| 20260501205705 | 66 | 15 | 5.0 | 6.0 | 0.00 | 0.00 | 0.00 | 65 | 4249.7 |
| 20260501204706 | 66 | 41 | 7.0 | 8.0 | 0.00 | 0.00 | 0.00 | 62 | 4249.9 |
| 20260501203703 | 66 | 5 | 5.0 | 7.0 | 0.00 | 0.00 | 0.00 | 64 | 4250.3 |
| 20260501202703 | 66 | 6 | 4.0 | 5.0 | 0.00 | 0.00 | 0.00 | 60 | 4250.4 |
| 20260501201703 | 66 | 16 | 6.0 | 7.0 | 0.00 | 0.00 | 0.00 | 62 | 4250.6 |
| 20260501200702 | 66 | 12 | 3.0 | 3.0 | 0.00 | 0.00 | 0.00 | 63 | 4250.8 |
| 20260501195657 | 66 | 336 | 8.0 | 9.0 | 0.00 | 0.00 | 0.00 | 64 | 4250.9 |
| 20260501194654 | 66 | 18 | 4.0 | 5.0 | 0.00 | 0.00 | 0.00 | 67 | 4251.3 |
| 20260501193653 | 66 | 1 | 4.0 | 6.0 | 0.00 | 0.00 | 0.00 | 64 | 4251.3 |
| 20260501192648 | 65 | 350 | 6.0 | 7.0 | 0.00 | 0.00 | 0.00 | 64 | 4251.6 |
| 20260501191643 | 65 | 3 | 3.0 | 3.0 | 0.00 | 0.00 | 0.00 | 65 | 4251.6 |
| 20260501190643 | 65 | 348 | 7.0 | 8.0 | 0.00 | 0.00 | 0.00 | 65 | 4252.0 |
| 20260501185640 | 65 | 348 | 6.0 | 7.0 | 0.00 | 0.00 | 0.00 | 63 | 4252.0 |
| 20260501184638 | 65 | 7 | 2.0 | 5.0 | 0.00 | 0.00 | 0.00 | 61 | 4252.3 |
| 20260501183636 | 65 | 359 | 8.0 | 8.0 | 0.00 | 0.00 | 0.00 | 58 | 4252.3 |
| 20260501182634 | 65 | 37 | 1.0 | 1.0 | 0.00 | 0.00 | 0.00 | 66 | 4252.1 |
| 20260501181634 | 65 | 352 | 6.0 | 7.0 | 0.00 | 0.00 | 0.00 | 60 | 4252.1 |
| 20260501180629 | 65 | 44 | 6.0 | 8.0 | 0.00 | 0.00 | 0.00 | 61 | 4252.0 |
| 20260501175628 | 64 | 79 | 5.0 | 9.0 | 0.00 | 0.00 | 0.00 | 61 | 4251.9 |
| 20260501174627 | 64 | 6 | 2.0 | 3.0 | 0.00 | 0.00 | 0.00 | 61 | 4251.8 |
| 20260501173622 | 64 | 62 | 3.0 | 3.0 | 0.00 | 0.00 | 0.00 | 59 | 4251.8 |
| 20260501172621 | 64 | 3 | 6.0 | 8.0 | 0.00 | 0.00 | 0.00 | 61 | 4251.9 |
| 20260501171618 | 64 | 10 | 5.0 | 6.0 | 0.00 | 0.00 | 0.00 | 59 | 4251.9 |